Location: Newark
(45.8667°N, 9.7333°E)
Time: 10:41:50
(UTC+00:00)

Vanguard 3 - Pass Details

Date: 30 January 2020
Orbit: 508 x 3263 km, 33.3° (Epoch: 22 February)

Event Time Altitude Azimuth Distance (km) Brightness Sun altitude
Rises 14:02:23 0° 214° (SSW) 6,081 13.3 18.1°
Reaches altitude 10° 14:06:32 10° 205° (SSW) 5,396 13.4 17.7°
Maximum altitude 14:21:20 36° 147° (SSE) 4,319 11.2 16.1°
Drops below altitude 10° 14:37:54 10° 91° (E) 6,051 11.2 14.1°
Sets 14:42:50 0° 84° (E) 6,876 11.4 13.5°
